User: anonymous   Login
Location: Buckeye Ditch
(40.9104°N, 122.9517°W)
Time: 20:35:23
(UTC+00:00)
Language:

Cosmos 494 Rocket - Orbit

View from above orbital plane
View from above orbital plane
View from above satellite
View from above satellite

Ground track
Ground track

The orbit data is extracted from the following two-line orbital elements,

1 06061U 72043B   24165.41217358  .00000489  00000-0  15898-3 0  9993
2 06061  74.0543 143.1041 0019896 348.5378  11.5322 14.41337301725727
Epoch (UTC): 13 June 2024 09:53:31
Eccentricity: 0.0019896
inclination: 74.0543°
perigee height: 740 km
apogee height: 768 km
right ascension of ascending node: 143.1041°
argument of perigee: 348.5378°
revolutions per day: 14.41337301
mean anomaly at epoch: 11.5322°
orbit number at epoch: 72572

The dashed part of the orbit path shows where the satellite is in the earth's shadow,  

DLR